Radiation Dose at Monitoring Post of Fukushima Daini Nuclear Power Station
Date,Time,MP-1(microSv/h),MP-2(microSv/h),MP-3(microSv/h),MP-4(microSv/h),MP-5(microSv/h),MP-6(microSv/h),MP-7(microSv/h),Wind Direction,Wind Velocity(m/s),Rain
2023/06/21,00:00,0.146,0.134,0.214,0.205,0.211,0.117,0.076,south,3.7,No
2023/06/21,00:10,0.147,0.133,0.214,0.205,0.213,0.116,0.076,south,2.9,No
2023/06/21,00:20,0.145,0.134,0.213,0.204,0.211,0.117,0.075,south,3.4,No
2023/06/21,00:30,0.147,0.133,0.212,0.206,0.213,0.116,0.075,south,4.8,No
2023/06/21,00:40,0.147,0.133,0.214,0.205,0.211,0.117,0.075,south,4.0,No
2023/06/21,00:50,0.147,0.133,0.212,0.204,0.213,0.116,0.075,south,3.2,No
2023/06/21,01:00,0.147,0.133,0.213,0.206,0.211,0.117,0.076,south,3.0,No
2023/06/21,01:10,0.148,0.134,0.213,0.204,0.212,0.116,0.075,south,3.6,Yes
2023/06/21,01:20,0.147,0.133,0.213,0.206,0.211,0.117,0.076,south,3.0,No
2023/06/21,01:30,0.148,0.134,0.214,0.205,0.212,0.116,0.076,south-southwest,3.0,No
2023/06/21,01:40,0.147,0.134,0.213,0.205,0.212,0.118,0.076,south,3.5,No
2023/06/21,01:50,0.147,0.134,0.215,0.205,0.213,0.117,0.076,south-southwest,3.9,No
2023/06/21,02:00,0.148,0.135,0.213,0.205,0.212,0.117,0.077,south-southwest,3.4,No
2023/06/21,02:10,0.147,0.135,0.213,0.204,0.213,0.118,0.075,south-southwest,2.3,No
2023/06/21,02:20,0.147,0.134,0.214,0.204,0.212,0.118,0.076,south,2.7,No
2023/06/21,02:30,0.147,0.133,0.214,0.205,0.212,0.117,0.076,south-southwest,2.6,No
2023/06/21,02:40,0.148,0.135,0.213,0.204,0.211,0.116,0.076,south-southwest,3.5,No
2023/06/21,02:50,0.147,0.135,0.213,0.205,0.212,0.118,0.077,south,3.2,No
2023/06/21,03:00,0.147,0.134,0.214,0.204,0.213,0.116,0.077,south-southwest,1.8,No
2023/06/21,03:10,0.146,0.135,0.214,0.204,0.210,0.117,0.075,west-southwest,1.2,No
2023/06/21,03:20,0.148,0.134,0.213,0.206,0.212,0.116,0.077,-,CALM,No
2023/06/21,03:30,0.147,0.134,0.214,0.205,0.211,0.117,0.076,-,CALM,No
2023/06/21,03:40,0.148,0.135,0.214,0.206,0.213,0.116,0.075,-,CALM,Yes
2023/06/21,03:50,0.146,0.133,0.214,0.203,0.211,0.116,0.076,west-northwest,1.2,No
2023/06/21,04:00,0.147,0.134,0.212,0.205,0.213,0.117,0.076,northwest,1.9,No
2023/06/21,04:10,0.147,0.134,0.213,0.204,0.210,0.117,0.076,northwest,1.8,No
2023/06/21,04:20,0.147,0.134,0.213,0.204,0.213,0.117,0.076,northwest,2.7,No
2023/06/21,04:30,0.147,0.134,0.214,0.205,0.212,0.116,0.076,north,2.8,No
2023/06/21,04:40,0.147,0.133,0.213,0.203,0.213,0.117,0.076,north,1.3,No
2023/06/21,04:50,0.148,0.136,0.214,0.204,0.211,0.117,0.076,north,1.5,No
2023/06/21,05:00,0.147,0.134,0.213,0.204,0.212,0.117,0.076,north,2.0,No
2023/06/21,05:10,0.147,0.134,0.212,0.206,0.211,0.117,0.076,north-northwest,2.2,No
2023/06/21,05:20,0.146,0.134,0.215,0.203,0.212,0.117,0.076,north,2.0,No
2023/06/21,05:30,0.147,0.134,0.212,0.205,0.211,0.116,0.075,north,1.3,No
2023/06/21,05:40,0.146,0.135,0.213,0.204,0.212,0.117,0.076,north-northwest,1.3,No
2023/06/21,05:50,0.146,0.135,0.212,0.204,0.210,0.116,0.076,north-northwest,1.4,No
2023/06/21,06:00,0.147,0.134,0.215,0.205,0.213,0.116,0.076,north-northwest,1.5,No
2023/06/21,06:10,0.148,0.134,0.213,0.206,0.210,0.117,0.076,north,1.0,No
2023/06/21,06:20,0.147,0.134,0.214,0.205,0.212,0.117,0.076,north-northeast,0.7,No
2023/06/21,06:30,0.147,0.134,0.212,0.205,0.210,0.117,0.076,east-northeast,0.9,No
2023/06/21,06:40,0.148,0.134,0.214,0.203,0.213,0.117,0.076,-,CALM,No
2023/06/21,06:50,0.146,0.134,0.213,0.205,0.211,0.116,0.076,-,CALM,No
2023/06/21,07:00,0.147,0.135,0.214,0.204,0.212,0.116,0.076,-,CALM,No
2023/06/21,07:10,0.146,0.134,0.212,0.205,0.212,0.116,0.075,-,CALM,No
2023/06/21,07:20,0.148,0.134,0.210,0.203,0.210,0.117,0.075,north,1.1,No
2023/06/21,07:30,0.147,0.133,0.209,0.203,0.214,0.116,0.076,-,CALM,No
2023/06/21,07:40,0.148,0.134,0.212,0.205,0.211,0.117,0.076,southeast,0.6,No
2023/06/21,07:50,0.148,0.133,0.213,0.204,0.209,0.117,0.076,east,0.9,No
2023/06/21,08:00,0.146,0.133,0.213,0.203,0.211,0.115,0.076,east-southeast,1.9,No
2023/06/21,08:10,0.148,0.133,0.212,0.202,0.212,0.117,0.075,southeast,1.8,No
2023/06/21,08:20,0.147,0.133,0.212,0.203,0.209,0.117,0.076,southeast,2.1,No
2023/06/21,08:30,0.145,0.136,0.211,0.204,0.209,0.116,0.077,south-southeast,1.3,No
2023/06/21,08:40,0.148,0.134,0.211,0.205,0.212,0.116,0.076,south-southeast,1.0,No
2023/06/21,08:50,0.147,0.134,0.211,0.204,0.212,0.117,0.076,south-southeast,1.8,No
2023/06/21,09:00,0.145,0.134,0.212,0.202,0.212,0.117,0.076,southeast,2.5,No
2023/06/21,09:10,0.147,0.132,0.212,0.202,0.210,0.117,0.076,southeast,3.2,No
2023/06/21,09:20,0.146,0.133,0.211,0.202,0.209,0.116,0.075,southeast,4.1,Yes
2023/06/21,09:30,0.145,0.132,0.211,0.202,0.209,0.117,0.074,south-southeast,4.6,No
2023/06/21,09:40,0.144,0.132,0.211,0.201,0.208,0.115,0.075,south-southeast,5.0,No
2023/06/21,09:50,0.144,0.132,0.212,0.202,0.209,0.115,0.074,south-southeast,5.6,No
2023/06/21,10:00,0.145,0.132,0.211,0.202,0.209,0.117,0.075,south-southeast,6.1,No
2023/06/21,10:10,0.145,0.132,0.212,0.201,0.209,0.117,0.074,south-southeast,6.0,No
2023/06/21,10:20,0.145,0.134,0.211,0.201,0.208,0.116,0.074,south-southeast,6.3,No
2023/06/21,10:30,0.145,0.134,0.210,0.201,0.211,0.115,0.075,south-southeast,6.2,No
2023/06/21,10:40,0.144,0.134,0.212,0.202,0.215,0.117,0.075,south-southeast,6.1,No
2023/06/21,10:50,0.145,0.133,0.211,0.203,0.212,0.117,0.075,south-southeast,5.7,No
2023/06/21,11:00,-,-,-,-,-,-,-,-,-,-
2023/06/21,11:10,0.147,0.132,0.211,0.206,0.210,0.116,0.075,south-southeast,5.0,No
2023/06/21,11:20,0.146,0.133,0.212,0.205,0.210,0.115,0.075,south-southeast,5.1,No
2023/06/21,11:30,0.146,0.132,0.213,0.203,0.210,0.115,0.074,south-southeast,5.5,No
2023/06/21,11:40,0.146,0.133,0.212,0.203,0.209,0.117,0.075,south-southeast,5.6,No
2023/06/21,11:50,0.145,0.132,0.213,0.204,0.210,0.117,0.075,south-southeast,6.6,No
2023/06/21,12:00,0.145,0.132,0.212,0.202,0.210,0.116,0.074,south-southeast,5.5,No
2023/06/21,12:10,0.146,0.131,0.213,0.203,0.209,0.116,0.075,south-southeast,5.8,No
2023/06/21,12:20,0.145,0.132,0.211,0.203,0.209,0.117,0.075,south-southeast,5.9,No
2023/06/21,12:30,0.145,0.132,0.211,0.202,0.209,0.116,0.075,south-southeast,5.5,No
2023/06/21,12:40,0.146,0.133,0.212,0.202,0.209,0.116,0.074,south-southeast,6.1,No
2023/06/21,12:50,0.145,0.133,0.213,0.203,0.208,0.117,0.075,south-southeast,6.0,No
2023/06/21,13:00,0.145,0.133,0.213,0.202,0.211,0.116,0.075,south-southeast,5.9,No
2023/06/21,13:10,0.145,0.132,0.212,0.203,0.209,0.116,0.075,south-southeast,4.5,No
2023/06/21,13:20,0.145,0.132,0.212,0.202,0.211,0.116,0.075,south-southeast,5.3,No
2023/06/21,13:30,0.146,0.132,0.212,0.204,0.209,0.116,0.075,south-southeast,5.4,No
2023/06/21,13:40,0.145,0.132,0.212,0.203,0.210,0.115,0.075,south-southeast,5.4,No
2023/06/21,13:50,0.147,0.133,0.213,0.203,0.211,0.115,0.075,south-southeast,5.1,No
2023/06/21,14:00,0.145,0.133,0.213,0.203,0.211,0.117,0.075,south-southeast,3.9,No
2023/06/21,14:10,0.145,0.133,0.212,0.204,0.210,0.116,0.075,south-southeast,4.9,No
2023/06/21,14:20,0.146,0.133,0.212,0.204,0.209,0.116,0.075,south-southeast,2.9,No
2023/06/21,14:30,0.145,0.132,0.212,0.206,0.211,0.116,0.075,south-southeast,4.8,No
2023/06/21,14:40,0.145,0.135,0.215,0.205,0.212,0.116,0.076,south-southeast,4.6,No
2023/06/21,14:50,0.146,0.134,0.215,0.204,0.214,0.117,0.075,south-southeast,4.7,No
2023/06/21,15:00,0.146,0.134,0.213,0.203,0.212,0.117,0.075,south-southeast,5.5,No
2023/06/21,15:10,0.148,0.131,0.212,0.205,0.211,0.117,0.075,south-southeast,5.0,No
2023/06/21,15:20,0.147,0.133,0.214,0.207,0.210,0.116,0.075,south-southeast,5.4,No
2023/06/21,15:30,0.146,0.134,0.216,0.206,0.209,0.116,0.075,south-southeast,5.5,No
2023/06/21,15:40,0.145,0.133,0.214,0.205,0.213,0.117,0.074,south-southeast,4.6,No
2023/06/21,15:50,0.146,0.133,0.213,0.203,0.212,0.115,0.075,south-southeast,5.2,No
2023/06/21,16:00,0.148,0.132,0.211,0.205,0.211,0.116,0.076,south,5.1,No
2023/06/21,16:10,0.148,0.134,0.214,0.206,0.210,0.117,0.075,south-southeast,5.0,No
2023/06/21,16:20,0.146,0.134,0.215,0.205,0.209,0.117,0.075,south-southeast,4.9,No
2023/06/21,16:30,0.146,0.133,0.213,0.204,0.210,0.116,0.076,south-southeast,5.6,No
2023/06/21,16:40,0.145,0.133,0.214,0.207,0.209,0.116,0.075,south-southeast,5.9,No
2023/06/21,16:50,0.145,0.134,0.216,0.204,0.209,0.117,0.075,south-southeast,6.0,No
2023/06/21,17:00,0.145,0.133,0.213,0.206,0.209,0.117,0.076,south-southeast,6.9,No
2023/06/21,17:10,0.146,0.135,0.214,0.208,0.212,0.117,0.076,south-southeast,6.4,No
2023/06/21,17:20,0.147,0.134,0.215,0.206,0.213,0.117,0.075,south-southeast,5.2,No
2023/06/21,17:30,0.146,0.134,0.213,0.206,0.212,0.117,0.075,southeast,4.0,No
2023/06/21,17:40,0.147,0.135,0.215,0.207,0.210,0.117,0.076,south-southeast,6.1,No
2023/06/21,17:50,0.148,0.134,0.213,0.205,0.213,0.117,0.076,south-southeast,4.4,No
2023/06/21,18:00,0.146,0.133,0.213,0.206,0.213,0.117,0.075,south-southeast,5.1,No
2023/06/21,18:10,0.146,0.134,0.215,0.207,0.211,0.116,0.075,south-southeast,4.3,No
2023/06/21,18:20,0.147,0.134,0.213,0.205,0.214,0.117,0.076,south-southeast,3.1,No
2023/06/21,18:30,0.146,0.133,0.215,0.207,0.212,0.116,0.076,south-southeast,3.5,No
2023/06/21,18:40,0.146,0.134,0.214,0.205,0.211,0.116,0.075,south-southeast,4.0,No
2023/06/21,18:50,0.147,0.133,0.213,0.206,0.214,0.118,0.075,south-southeast,5.4,No
2023/06/21,19:00,0.146,0.135,0.215,0.207,0.211,0.117,0.075,south-southeast,6.4,No
2023/06/21,19:10,0.148,0.134,0.213,0.205,0.213,0.116,0.075,south-southeast,4.4,No
2023/06/21,19:20,0.148,0.134,0.214,0.208,0.212,0.117,0.075,south-southeast,5.3,No
2023/06/21,19:30,0.146,0.133,0.214,0.205,0.211,0.116,0.075,south,5.4,No
2023/06/21,19:40,0.147,0.133,0.215,0.206,0.213,0.116,0.076,south-southeast,4.2,No
2023/06/21,19:50,0.147,0.135,0.215,0.207,0.211,0.117,0.076,south-southeast,5.7,No
2023/06/21,20:00,0.146,0.134,0.213,0.205,0.211,0.116,0.075,south,6.5,No
2023/06/21,20:10,0.147,0.135,0.215,0.207,0.212,0.117,0.075,south,5.0,No
2023/06/21,20:20,0.146,0.133,0.213,0.204,0.211,0.117,0.075,south,4.8,No
2023/06/21,20:30,0.148,0.134,0.216,0.206,0.214,0.117,0.076,south-southwest,4.8,No
2023/06/21,20:40,0.148,0.134,0.214,0.205,0.211,0.117,0.075,south,5.0,No
2023/06/21,20:50,0.147,0.135,0.216,0.206,0.212,0.116,0.076,south-southwest,5.9,No
2023/06/21,21:00,0.148,0.134,0.213,0.207,0.212,0.117,0.075,south,5.1,No
2023/06/21,21:10,0.146,0.134,0.214,0.205,0.211,0.117,0.075,south-southwest,5.5,No
2023/06/21,21:20,0.147,0.134,0.215,0.207,0.212,0.116,0.075,south-southwest,5.4,No
2023/06/21,21:30,0.147,0.134,0.213,0.205,0.210,0.117,0.076,south-southwest,4.6,No
2023/06/21,21:40,0.147,0.135,0.216,0.207,0.212,0.117,0.076,south,4.9,No
2023/06/21,21:50,0.147,0.134,0.212,0.205,0.211,0.117,0.074,south,4.5,No
2023/06/21,22:00,0.147,0.134,0.216,0.205,0.212,0.117,0.075,south-southwest,4.4,No
2023/06/21,22:10,0.147,0.133,0.214,0.206,0.212,0.117,0.075,south,4.7,No
2023/06/21,22:20,0.147,0.135,0.215,0.205,0.211,0.117,0.075,south,4.9,No
2023/06/21,22:30,0.147,0.134,0.214,0.206,0.213,0.116,0.076,south,5.0,No
2023/06/21,22:40,0.147,0.134,0.215,0.204,0.211,0.117,0.075,south,4.1,Yes
2023/06/21,22:50,0.145,0.133,0.214,0.205,0.213,0.117,0.076,south,4.3,No
2023/06/21,23:00,0.148,0.134,0.215,0.206,0.213,0.115,0.076,south,4.7,No
2023/06/21,23:10,0.147,0.134,0.216,0.206,0.211,0.116,0.075,south-southwest,4.8,No
2023/06/21,23:20,0.148,0.134,0.214,0.207,0.213,0.116,0.076,south,4.8,No
2023/06/21,23:30,0.147,0.134,0.215,0.205,0.209,0.117,0.075,south,5.2,No
2023/06/21,23:40,0.146,0.133,0.213,0.207,0.212,0.116,0.075,south,5.6,No
2023/06/21,23:50,0.148,0.135,0.215,0.205,0.212,0.117,0.075,south,4.1,No
